This is the latest recevied weather packets stored in our database for station/object WB0OCV. If no packets are shown the sender has not sent any weather packets the latest 1 day(s).
| Time | Temp. | Humidity | Pressure | Rain* | Wind** | Luminosity | Snow |
|---|---|---|---|---|---|---|---|
| 1778075075 | 20° C | 71% | 1015.3 hPa | 0 mm | - | 585 W/m² | - |
| 1778074772 | 18.89° C | 72% | 1015.2 hPa | 0 mm | - | 568 W/m² | - |
| 1778074166 | 18.89° C | 74% | 1015.3 hPa | 0 mm | - | 268 W/m² | - |
| 1778072650 | 17.78° C | 77% | 1015.2 hPa | 0 mm | - | 77 W/m² | - |
| 1778071441 | 17.78° C | 79% | 1015.4 hPa | 0 mm | - | 118 W/m² | - |
| 1778071139 | 17.78° C | 79% | 1015.4 hPa | 0 mm | - | 74 W/m² | - |
| 1778070837 | 17.78° C | 78% | 1015.4 hPa | 0 mm | - | 71 W/m² | - |
| 1778070534 | 17.22° C | 79% | 1015.4 hPa | 0 mm | - | 111 W/m² | - |
| 1778066903 | 16.11° C | 83% | 1015.7 hPa | 0 mm | - | 99 W/m² | - |
| 1778065693 | 15.56° C | 85% | 1015.8 hPa | 0 mm | - | 88 W/m² | - |
| 1778063573 | 15° C | 88% | 1015.6 hPa | 0 mm | - | 39 W/m² | - |
| 1778062665 | 15° C | 89% | 1015.4 hPa | 0 mm | - | 33 W/m² | - |
| 1778061152 | 13.89° C | 91% | 1015.6 hPa | 0 mm | - | 13 W/m² | - |
| 1778060849 | 13.89° C | 91% | 1015.8 hPa | 0 mm | - | 8 W/m² | - |
| 1778060547 | 13.89° C | 92% | 1015.6 hPa | 0 mm | - | 5 W/m² | - |
| 1778060246 | 13.89° C | 92% | 1015.6 hPa | 0 mm | - | 3 W/m² | - |
| 1778058430 | 13.89° C | 92% | 1015.5 hPa | 0 mm | - | 0 W/m² | - |
| 1778057216 | 13.89° C | 93% | 1015.7 hPa | 0 mm | - | 0 W/m² | - |
| 1778056005 | 13.33° C | 93% | 1015.8 hPa | 0 mm | - | 0 W/m² | - |
| 1778055101 | 13.33° C | 93% | 1015.8 hPa | 0 mm | - | 0 W/m² | - |
| 1778054798 | 13.33° C | 94% | 1015.8 hPa | 0 mm | - | 0 W/m² | - |
| 1778053587 | 13.33° C | 94% | 1015.9 hPa | 0 mm | - | 0 W/m² | - |
| 1778053284 | 13.33° C | 94% | 1015.8 hPa | 0 mm | - | 0 W/m² | - |
| 1778052982 | 13.33° C | 94% | 1015.9 hPa | 0 mm | - | 0 W/m² | - |
| 1778052375 | 13.33° C | 94% | 1015.8 hPa | 0 mm | - | 0 W/m² | - |
* Rain latest hour (hover to see other rain measurements)
** Current wind speed in m/s (hover to see current wind gust speed)